This is the latest recevied weather packets stored in our database for station/object W4FXD. If no packets are shown the sender has not sent any weather packets the latest 10 day(s).
| Time | Temp. | Humidity | Pressure | Rain* | Wind** | Luminosity | Snow |
|---|---|---|---|---|---|---|---|
| 1778094671 | 20° C | 93% | 1011.9 hPa | 0 mm | - | 159 W/m² | - |
| 1778094369 | 20° C | 92% | 1012.1 hPa | 0 mm | - | 154 W/m² | - |
| 1778094066 | 20.56° C | 91% | 1012 hPa | 0 mm | - | 173 W/m² | - |
| 1778093763 | 20.56° C | 90% | 1012.4 hPa | 0 mm | - | 146 W/m² | - |
| 1778093459 | 20.56° C | 90% | 1013.1 hPa | 0 mm | - | 116 W/m² | - |
| 1778093157 | 20.56° C | 91% | 1012.9 hPa | 0 mm | - | 147 W/m² | - |
| 1778092854 | 20.56° C | 91% | 1013 hPa | 0 mm | - | 131 W/m² | - |
| 1778092550 | 20.56° C | 92% | 1013.5 hPa | 0 mm | - | 123 W/m² | - |
| 1778092246 | 20.56° C | 92% | 1013 hPa | 0 mm | - | 116 W/m² | - |
| 1778091944 | 20.56° C | 91% | 1012.7 hPa | 0 mm | - | 125 W/m² | - |
| 1778091641 | 20° C | 91% | 1013.1 hPa | 0 mm | - | 161 W/m² | - |
| 1778091339 | 20° C | 92% | 1013.3 hPa | 0 mm | - | 99 W/m² | - |
| 1778091035 | 20.56° C | 91% | 1013.2 hPa | 0 mm | - | 98 W/m² | - |
| 1778090732 | 20.56° C | 90% | 1013 hPa | 0 mm | - | 219 W/m² | - |
| 1778090429 | 20.56° C | 89% | 1012.7 hPa | 0 mm | - | 301 W/m² | - |
| 1778090125 | 20.56° C | 90% | 1012.8 hPa | 0 mm | - | 304 W/m² | - |
| 1778089822 | 20.56° C | 91% | 1013.1 hPa | 0 mm | - | 369 W/m² | - |
| 1778089521 | 20.56° C | 91% | 1012.9 hPa | 0 mm | - | 443 W/m² | - |
| 1778089216 | 20° C | 92% | 1013.2 hPa | 0 mm | - | 425 W/m² | - |
| 1778088914 | 20° C | 93% | 1012.9 hPa | 0 mm | - | 299 W/m² | - |
| 1778088611 | 20° C | 94% | 1012.7 hPa | 0 mm | - | 228 W/m² | - |
| 1778088308 | 19.44° C | 94% | 1012.3 hPa | 0 mm | - | 147 W/m² | - |
| 1778088004 | 20° C | 94% | 1012.1 hPa | 0 mm | - | 296 W/m² | - |
| 1778087702 | 20° C | 93% | 1012.4 hPa | 0 mm | - | 218 W/m² | - |
| 1778087399 | 19.44° C | 95% | 1012.3 hPa | 0 mm | - | 406 W/m² | - |
* Rain latest hour (hover to see other rain measurements)
** Current wind speed in m/s (hover to see current wind gust speed)